Regional Weather Roundup
Issued by NWS Huntsville, AL

Home | Current Version | Previous Version | Text Only | Print | Product List | Glossary On
Versions: 1 2 3 4 5 6 7 8 9 10 11 12 13 14 15 16 17 18 19 20 21 22 23 24 25 26 27 28 29 30 31 32 33 34 35 36 37 38 39 40 41 42 43 44 45 46 47 48 49 50
000
ASUS44 KHUN 210410
RWRHUN

WEATHER ROUNDUP FOR THE TENNESSEE VALLEY
NATIONAL WEATHER SERVICE HUNTSVILLE AL
1000 PM CST SAT DEC 20 2014

ALZ001>004-210500-
NORTHWEST ALABAMA

CITY           SKY/WX    TMP DP  RH WIND       PRES   REMARKS
SHOALS AIRPORT CLEAR     41  29  62 NE5       30.25R
SHOALS TVA RES   N/A     41 N/A N/A MISG        N/A
$$

ALZ005>007-016-210500-
NORTH CENTRAL ALABAMA

CITY           SKY/WX    TMP DP  RH WIND       PRES   REMARKS
DECATUR AP     CLEAR     38  28  67 N7        30.24R WCI  33
HUNTSVILLE AP  CLEAR     40  29  64 NE3       30.22S
HUN NWS/UAH      N/A     40  27  59 N3          N/A
MERIDIANVILLE  CLEAR     34  28  80 N3        30.23S
REDSTONE ARSN  CLEAR     36  30  80 N7        30.22  WCI  30
VINEMONT AP    FAIR      32  30  92 CALM      30.23R
$$

ALZ008>010-210500-
NORTHEAST ALABAMA

CITY           SKY/WX    TMP DP  RH WIND       PRES   REMARKS
ALBERTVILLE    CLEAR     36  36 100 NE3       30.20R
FORT PAYNE     CLEAR     32  30  93 CALM      30.22R
SCOTTSBORO AP  MOCLDY    32  30  93 CALM      30.24R
VALLEY HEAD      N/A     30 N/A N/A MISG        N/A
$$

TNZ076-096-097-210500-
SOUTHEASTERN MIDDLE TENNESSEE

CITY           SKY/WX    TMP DP  RH WIND       PRES   REMARKS
TULLAHOMA      CLEAR     28  25  86 CALM      30.24R
WINCHESTER     CLEAR     27  25  93 CALM      30.23S
$$

...SURROUNDING SITES...

CITY           SKY/WX    TMP DP  RH WIND       PRES   REMARKS
ATLANTA        CLOUDY    48  44  86 E6        30.20S FOG
ANNISTON       CLOUDY    45  43  93 CALM      30.21S
BIRMINGHAM     PTCLDY    34  32  92 CALM      30.22S
CHATTANOOGA    PTCLDY    35  32  88 CALM      30.24S
CORINTH        FAIR      37  30  75 CALM      30.25R
DALTON         CLOUDY    37  36  93 CALM      30.22S
GADSDEN        CLEAR     34  30  86 NW3       30.22S
GOLDEN TRNGL   CLEAR     39  34  81 NE3       30.21R
HALEYVILLE     FAIR      31  30  96 CALM      30.24R
JACKSON TN     CLEAR     32  28  85 CALM      30.27R
LEWISBURG      FAIR      28  25  89 CALM      30.26R
MEMPHIS        PTCLDY    41  31  67 E5        30.25R
MURFREESBORO   FAIR      32  28  85 CALM      30.26S
NASHVILLE      PTCLDY    33  27  78 CALM      30.27S
OXFORD MS      FAIR      32  32 100 CALM      30.25R
ROME           PTCLDY    39  38  96 CALM      30.22R FOG
SAVANNAH       CLEAR     28  27  93 CALM      30.26R
TUPELO         CLEAR     35  30  82 NE10      30.24R WCI  27
TUSCALOOSA     CLEAR     38  36  92 CALM      30.21S
$$

...GULF COAST WEATHER...

CITY           SKY/WX    TMP DP  RH WIND       PRES   REMARKS
GULFPORT       CLOUDY    51  46  83 NE12      30.14S
PASCAGOULA     CLOUDY    51  48  89 NE5       30.16R
MOBILE         CLOUDY    49  47  93 NE7       30.15S
GULF SHORES    CLOUDY    50  47  91 NE7       30.13R
DESTIN         CLOUDY    54  52  93 NE8       30.12S
APPALACHICOLA  HVY RAIN  57  54  89 NE7       30.11R FOG
$$



USA.gov is the U.S. government's official web portal to all federal, state and local government web resources and services.